Theta_e
310 311 313 314 315 315 314 315 316 315 315 316 316 317 316 316 318 320 321 332 340 348 346 345 344 341 340 338 338 337 337 338 337 337 337 337 338 339 340 342 343 344 345
311 310 311 311 313 314 314 314 313 312 312 313 315 316 316 315 315 316 316 321 336 342 347 346 343 341 337 338 337 337 337 336 334 335 336 335 336 335 336 336 336 335 336
310 309 309 309 310 312 313 312 311 311 311 313 311 313 314 313 314 321 327 329 330 338 343 344 341 338 337 337 337 337 336 337 336 335 334 334 334 334 334 335 336 335 335
309 308 307 308 310 311 312 311 309 309 309 309 309 309 309 312 321 322 325 327 328 329 336 339 337 337 335 337 338 337 335 334 335 335 334 333 334 334 335 333 333 333 334
311 307 308 309 310 310 311 311 309 308 307 309 310 310 312 316 316 318 319 323 326 327 328 336 336 335 335 335 334 334 331 330 329 329 329 330 332 332 333 333 334 334 334
311 308 309 310 310 312 310 309 307 312 308 307 310 312 313 313 312 314 318 321 323 324 323 323 323 326 330 330 330 329 327 326 325 324 324 324 325 326 328 330 331 333 333
310 308 310 310 310 314 313 312 307 310 306 308 310 310 312 312 309 307 308 314 318 322 323 323 321 320 322 326 324 323 323 322 321 321 319 319 321 322 324 325 325 327 329
309 310 312 313 314 313 312 309 303 308 307 308 306 307 304 306 308 306 305 305 310 317 318 318 316 315 315 316 317 319 318 319 318 318 316 316 317 317 318 319 320 321 323
309 310 312 312 311 311 308 304 302 301 302 303 305 305 302 300 301 305 302 303 308 316 316 317 317 313 311 311 313 313 316 316 316 315 315 315 316 316 316 316 316 317 318
308 310 309 307 305 305 303 303 302 299 300 298 299 303 302 301 297 294 298 299 304 311 310 311 313 313 309 306 312 315 315 314 314 314 315 315 315 315 315 315 315 315 316
306 308 305 303 302 301 301 302 300 299 298 297 296 296 296 296 294 292 290 293 296 300 313 311 310 310 310 309 305 309 316 314 314 314 314 314 314 314 314 314 314 314 314
302 306 305 301 302 301 300 300 301 300 298 297 296 296 295 294 293 291 290 290 290 295 303 307 309 306 305 303 307 315 317 316 317 315 314 314 314 314 314 314 314 313 313
300 303 303 301 301 301 301 299 299 299 299 297 297 295 295 294 294 293 291 290 290 292 295 302 302 301 300 299 301 312 314 313 317 315 315 314 314 314 314 314 313 312 312
300 301 307 302 302 302 303 305 300 299 298 298 298 297 295 295 293 293 292 289 286 288 290 291 295 296 297 297 305 313 303 311 313 314 314 314 313 314 314 314 313 311 311
301 300 305 300 300 300 300 300 299 298 301 302 300 299 296 294 292 291 290 290 288 284 285 291 290 294 295 295 300 301 300 310 312 311 312 313 313 313 314 314 313 311 310
298 301 301 299 298 298 299 298 298 298 300 299 299 297 295 293 291 290 290 289 288 287 284 289 290 291 294 297 301 300 300 307 308 309 309 311 312 312 312 313 313 311 310
297 301 299 297 296 296 296 298 300 299 297 298 298 296 295 293 290 289 288 288 288 288 286 288 289 292 292 293 296 297 300 298 299 306 307 308 310 310 309 310 312 312 311
297 300 298 296 296 295 294 296 298 300 298 297 297 296 296 297 291 290 289 288 288 287 288 287 289 291 291 292 294 294 297 299 298 304 306 308 308 308 307 307 307 310 310
297 299 297 296 295 295 293 294 295 296 297 298 296 296 295 295 291 290 289 289 289 291 288 287 288 289 290 291 292 293 293 293 298 305 303 304 304 305 305 305 306 307 307
298 298 297 296 296 294 294 294 295 294 295 296 298 298 297 296 293 291 290 290 290 289 289 288 288 288 289 291 290 289 289 291 291 297 299 301 302 302 302 303 304 304 307
299 299 297 296 294 294 294 293 293 293 292 293 296 297 298 300 304 300 293 293 293 290 289 289 287 286 287 287 287 288 287 290 292 292 293 292 293 293 294 298 300 302 303
298 298 298 297 294 296 299 300 299 293 292 292 294 296 295 301 301 308 307 305 302 296 294 287 287 286 287 287 288 287 291 291 289 296 293 292 291 291 292 292 299 301 303
298 297 297 297 297 297 299 300 302 295 293 291 292 294 294 298 300 298 298 300 298 299 299 292 289 289 291 293 292 292 291 290 289 293 293 292 290 289 291 294 298 300 301
298 297 297 297 296 298 301 300 301 299 296 296 293 295 294 294 296 297 294 292 292 292 292 295 293 294 295 294 294 294 293 291 292 292 294 289 290 290 290 291 298 303 302
296 297 298 297 297 297 300 299 299 300 297 297 298 296 296 295 297 297 294 291 292 292 296 300 298 297 296 297 296 294 291 289 288 290 293 292 292 291 291 290 297 301 301
298 299 299 299 300 299 300 299 298 297 296 297 295 294 298 297 297 296 292 291 290 292 294 291 292 295 295 295 297 294 292 289 289 289 291 291 292 293 291 293 293 294 294
Wind_Speed
5 4 5 5 5 5 4 4 4 5 5 6 5 5 5 6 6 3 3 11 8 9 10 9 6 6 4 2 1 1 3 3 3 3 2 4 6 5 5 7 8 9 12
4 5 5 5 6 5 4 4 4 4 4 4 5 5 5 5 5 6 4 4 10 9 12 10 8 5 3 3 3 4 4 4 4 5 6 5 5 4 3 3 4 3 3
6 5 4 4 4 5 6 5 5 4 4 5 5 5 4 5 5 4 4 3 4 7 7 6 5 3 4 6 6 5 5 8 7 6 4 6 7 7 9 10 9 6 2
6 5 4 5 5 4 4 4 4 4 5 4 4 5 4 3 4 5 5 5 4 5 10 13 11 9 5 9 14 16 16 17 19 7 7 5 5 6 10 11 12 13 13
6 5 4 4 5 4 4 4 3 2 4 6 5 5 4 6 6 6 8 8 8 7 5 16 14 13 14 14 14 16 15 14 15 14 13 12 10 8 7 9 11 12 14
6 5 4 5 5 3 5 6 3 4 2 4 3 5 7 7 8 7 8 6 6 7 7 8 6 7 16 15 15 14 13 12 13 12 12 11 10 10 10 11 10 9 10
5 5 4 5 5 5 5 6 4 4 4 7 2 3 3 8 12 10 8 5 6 5 5 6 4 4 6 15 14 14 12 12 12 11 11 12 12 12 11 12 12 14 13
6 5 5 4 5 4 7 8 6 3 3 8 3 1 4 4 4 8 8 8 7 5 5 5 7 6 4 4 8 12 12 13 12 11 11 11 12 11 11 11 12 13 13
6 6 6 5 5 5 5 4 6 7 5 4 12 4 4 3 3 4 8 8 9 6 5 5 4 5 5 5 6 7 10 10 9 9 9 10 10 10 10 10 11 11 12
5 6 6 6 6 4 6 4 5 5 6 7 4 6 6 3 3 4 4 5 7 6 5 4 4 4 5 4 6 8 6 6 8 8 9 10 11 10 10 10 11 13 14
6 5 6 5 6 4 4 6 6 7 4 4 4 3 4 4 5 4 3 5 4 4 4 4 3 4 6 6 5 6 8 5 7 9 9 9 9 10 10 11 12 13 14
4 5 5 4 5 5 5 3 4 7 5 5 4 5 4 3 2 3 3 3 2 4 3 4 5 4 4 5 10 14 14 12 10 10 11 12 12 11 11 11 12 14 15
3 5 3 5 4 3 4 4 5 6 5 4 4 3 3 3 1 2 2 2 2 3 3 3 4 4 6 6 7 16 15 17 12 8 10 13 15 16 14 13 13 13 14
2 4 3 4 5 6 5 3 2 3 4 5 7 5 3 3 3 2 2 2 3 3 3 3 3 5 5 6 11 17 7 13 14 12 10 13 15 14 15 15 13 13 13
2 4 4 5 5 6 6 5 4 5 4 4 5 5 4 2 3 3 3 2 3 2 3 4 3 5 5 5 8 5 6 13 14 14 13 14 14 13 12 12 13 13 13
3 6 6 5 5 6 6 6 4 5 6 3 3 5 3 2 4 3 3 2 1 3 2 3 4 4 6 6 8 6 7 14 14 13 15 15 14 13 14 12 12 14 14
2 3 4 3 5 5 5 5 4 4 6 3 2 3 2 1 1 1 2 1 2 2 2 4 4 4 4 5 6 6 6 6 6 14 16 15 15 12 12 12 14 15 15
1 4 4 3 4 4 4 4 4 3 4 3 2 3 4 2 2 3 3 3 2 2 3 6 3 4 3 4 5 6 6 7 6 13 18 16 13 11 12 13 12 12 13
2 3 4 3 3 2 2 3 3 3 3 2 4 5 6 4 4 2 3 3 2 2 3 3 5 3 4 3 4 4 5 6 6 16 17 17 13 13 14 14 12 12 12
4 3 4 3 1 0 0 1 3 4 5 4 4 5 7 6 6 7 5 5 4 4 2 3 4 4 4 4 3 4 5 2 6 7 11 10 13 15 14 15 14 14 13
5 5 4 3 3 2 3 3 2 3 4 7 6 6 6 9 15 10 3 6 4 4 3 4 4 3 4 4 4 3 4 6 7 5 3 4 4 5 7 10 12 15 13
5 3 3 5 5 4 7 8 5 4 4 4 6 7 6 10 10 13 13 12 10 4 5 2 3 4 6 4 3 3 4 6 7 1 3 6 2 5 6 5 13 17 14
3 4 4 4 5 6 9 11 9 4 5 6 6 5 6 4 9 6 9 12 12 10 8 3 4 4 6 5 4 7 6 6 7 8 4 6 3 5 5 6 15 16 13
4 3 5 5 6 6 10 12 11 6 4 9 7 3 6 8 6 6 5 7 7 5 5 3 3 6 6 6 6 7 6 6 7 7 4 4 3 4 5 5 12 7 1
2 4 4 6 7 8 11 14 8 6 6 10 6 1 6 7 9 8 5 6 7 6 4 6 8 10 12 12 9 3 4 6 5 4 3 2 3 5 3 4 4 10 8
4 3 6 6 7 9 13 12 6 4 6 5 6 5 8 7 10 8 3 4 6 5 4 7 8 9 8 7 11 3 4 6 6 3 1 3 2 2 4 3 3 4 4
Wind_Direction
31 11 6 0 352 345 353 351 351 350 341 338 330 338 338 333 327 317 307 313 303 254 234 232 214 204 195 218 294 356 353 344 323 291 235 243 271 302 298 263 254 246 249
38 26 11 1 358 350 337 349 343 334 331 331 332 336 326 323 315 303 303 314 314 285 235 226 213 203 196 288 305 307 324 312 301 280 264 254 247 254 250 309 340 4 33
35 27 11 357 342 334 340 348 346 345 353 337 331 320 311 322 322 358 0 357 339 337 223 202 201 86 349 340 328 309 0 351 294 249 259 265 256 254 265 273 274 266 256
22 18 8 351 333 337 339 346 345 340 342 338 319 321 341 357 41 28 31 25 21 36 57 75 71 51 55 78 71 77 68 54 42 0 286 293 274 285 263 266 267 269 266
21 27 3 339 343 352 357 343 325 346 336 341 340 8 28 50 35 34 35 33 42 46 52 87 90 82 79 75 68 67 67 62 54 44 34 34 28 6 336 314 283 276 273
19 16 0 356 350 360 4 356 349 331 313 313 320 28 51 47 48 35 40 29 31 48 52 59 48 66 73 73 69 63 59 55 52 42 34 28 21 13 12 4 357 357 316
11 11 353 13 359 15 357 4 332 348 336 357 1 355 34 54 51 40 30 20 24 19 56 76 68 64 62 69 62 54 48 43 42 38 31 19 16 12 9 3 358 354 1
10 5 4 6 5 7 20 13 18 339 356 14 16 299 14 2 35 38 29 17 11 36 31 45 74 47 55 52 67 49 41 36 37 29 30 18 11 7 6 2 359 352 345
17 14 11 18 10 19 29 9 14 30 21 350 31 40 28 0 345 5 13 24 20 37 22 37 54 74 62 41 46 34 37 28 24 16 15 9 2 0 357 358 358 357 347
15 23 28 37 35 25 43 26 29 29 41 31 357 31 64 32 33 350 354 359 28 25 22 28 46 37 31 24 19 6 13 5 358 350 354 353 346 343 346 350 351 350 348
26 34 37 45 57 38 34 40 36 40 39 55 31 359 16 26 48 64 348 331 354 14 10 12 39 27 9 359 331 318 333 311 319 323 322 325 325 322 322 331 338 340 339
12 20 47 43 60 48 36 28 45 47 52 57 47 44 63 73 14 34 30 318 305 316 322 12 38 22 348 351 341 323 317 308 291 287 296 305 308 306 302 306 319 330 332
359 340 31 29 28 34 40 36 45 49 37 57 68 58 52 49 134 142 100 317 314 306 328 333 28 348 350 345 329 334 312 320 288 284 283 291 290 285 286 291 300 312 319
322 333 94 61 31 32 13 28 33 24 80 83 90 93 82 48 32 50 91 71 340 325 324 330 313 340 340 327 328 333 319 319 315 308 319 314 307 291 273 273 277 289 301
15 15 59 77 40 45 28 38 33 36 56 40 43 74 81 57 54 50 55 85 129 321 305 313 314 310 317 317 315 344 333 332 337 333 323 318 321 324 296 266 268 274 287
34 60 68 49 43 45 29 51 36 36 59 29 55 62 44 33 43 40 29 31 96 159 233 233 273 287 303 310 312 333 317 336 326 327 322 318 321 322 304 277 265 271 278
89 110 94 68 56 44 20 45 45 65 76 57 33 56 51 53 3 45 92 70 7 9 297 291 243 260 283 301 310 314 307 307 301 314 324 325 323 322 331 320 293 271 272
188 148 124 94 74 50 27 36 40 48 63 40 301 299 280 261 348 9 2 341 248 207 212 289 292 303 286 296 282 299 309 313 302 301 311 318 316 325 328 327 326 311 278
185 190 151 154 125 90 37 16 8 10 8 312 289 278 281 287 295 285 266 286 261 248 218 241 282 274 274 291 309 290 279 289 295 300 307 306 316 311 314 312 314 305 295
177 235 189 186 195 200 13 349 352 352 336 319 308 288 277 256 245 252 263 270 284 285 228 245 270 276 263 283 266 272 305 288 295 296 290 297 319 322 317 314 309 307 298
189 196 197 220 244 268 263 262 297 310 313 317 319 305 293 279 263 247 244 276 280 279 284 285 279 280 282 307 296 295 276 298 296 280 298 304 308 306 304 308 305 302 295
180 176 215 228 247 261 268 264 249 278 297 291 301 308 310 311 294 272 267 304 290 264 281 248 268 267 279 268 264 272 291 312 318 303 323 290 270 299 291 288 291 293 283
190 216 236 241 264 263 261 267 264 269 286 294 277 283 308 303 310 263 295 301 301 323 308 247 263 274 290 299 296 290 292 301 294 295 270 289 267 293 277 284 300 294 279
212 234 263 266 266 269 264 267 266 258 257 266 251 279 285 293 291 256 297 294 291 306 311 314 240 269 272 277 291 289 292 287 289 292 266 280 266 272 288 287 307 349 330
243 250 258 277 272 278 267 272 284 277 264 266 288 248 269 286 285 287 301 316 312 296 305 304 327 314 302 299 319 311 308 308 301 294 305 270 287 304 290 294 296 343 323
245 277 281 263 269 275 285 277 257 251 273 292 314 291 276 280 291 316 311 290 288 289 327 325 326 320 308 302 319 308 295 298 300 285 290 309 284 315 309 292 299 309 316